Карточка аэропорта USTR

Внимание!
Информация на этой странице в стадии наполнения.
Если вы не увидели какой-то информации, или заметили неточность - пожалуйста сообщите нам!
Спасибо!
Команда RU-STAFF
Название аэропортаРощино
Название аэропорта (англ.)Roshschino
Превышение378 ft. (115.2 m.)
Координаты57°10.098', 65°19.002'
Высота перехода3000ft
Эшелон переходаQNH⩾1013hPa:FL040; QNH⩾977hPa:FL050; QNH⩽977hPa:FL060
Коды ответчика5101-5137
Зона ОрВДТюмень РПИ (USTV)
Данные METARUSTR 220030Z 20005MPS CAVOK M25/M30 Q1033 R21/450260 R30/450260 NOSIG
Проноз погоды (TAF)USTR 211933Z 2121/2221 20005G10MPS 9999 SCT020 TEMPO 2121/2203 FEW004 SCT016 BECMG 2206/2207 23005G12MPS
NOTAMshow/hide NOTAM
AWOS   TABLE

Информация о ВПП

ВПП Длина ВПП (м.) Покрытие Курс ВПП Частота ILS
033003Асфальтобетон34108.3
213003Асфальтобетон214110.7
122704Асфальтобетон121 
302704Асфальтобетон301 

Диспетчерские позиции

Позывной Наименование органа УВД Частота
USTR_R_APPТюмень-Круг126.100
USTR_GNDТюмень-Руление119.000
USTR_TWRТюмень-Старт118.200



Спутниковое изображение